Temperature
21 22 21 21 20 20 20 19 19 19 19 19 19 19 19 19 19 18 18 18 18 18 18 18 18 18 18 18 18 18 18 18 18 18 18 18 18 18 17 17 17 17 17
22 22 21 21 20 20 19 19 19 19 19 19 19 19 19 18 18 18 18 18 18 18 18 18 18 18 18 18 18 18 18 18 18 18 18 18 18 18 17 17 17 17 17
22 22 21 21 20 20 19 19 19 19 19 19 19 19 18 18 18 18 18 18 18 18 18 18 18 18 18 18 18 18 18 18 18 18 17 18 18 17 17 17 17 17 17
22 22 21 21 20 20 19 19 19 19 19 19 19 19 18 18 18 18 18 18 18 18 18 18 18 18 18 18 18 18 18 18 17 17 17 17 17 17 17 17 17 17 17
21 21 21 21 20 20 19 19 19 19 19 19 19 18 18 18 18 18 18 18 18 18 18 18 18 18 18 18 18 18 18 17 17 17 17 17 18 17 17 17 17 17 17
21 21 21 21 20 20 19 19 19 19 19 19 19 18 18 18 18 18 18 18 18 18 18 18 18 18 18 18 18 18 18 17 17 17 17 18 18 17 17 17 17 17 17
20 21 21 21 20 20 19 19 19 19 19 19 18 18 18 18 18 18 18 18 18 18 18 18 18 18 18 18 18 18 18 18 18 17 18 18 18 18 17 17 17 17 17
20 20 21 20 20 20 19 19 19 19 19 19 19 18 18 18 18 18 18 18 18 18 18 18 18 18 18 18 18 18 18 18 18 18 18 18 18 18 17 17 17 17 17
20 20 21 20 20 20 19 19 19 19 19 19 19 18 18 18 18 18 18 18 18 18 18 18 18 18 18 18 18 18 18 18 18 18 18 18 18 18 18 17 17 17 17
20 20 20 20 20 19 19 19 19 19 19 19 19 19 18 18 18 18 18 18 18 18 18 18 18 18 18 18 18 18 18 18 18 18 18 18 18 18 18 17 17 17 17
20 20 19 19 19 19 19 19 19 19 19 19 19 19 18 18 18 18 18 18 18 18 18 18 18 18 18 18 18 19 19 18 18 18 18 18 18 18 18 17 17 17 17
20 20 19 19 19 18 18 19 19 18 19 19 18 18 18 18 18 18 18 18 18 18 18 18 18 18 18 18 18 18 18 18 18 18 18 18 18 18 18 18 17 17 17
20 20 19 19 19 19 18 19 18 18 18 18 18 18 18 18 18 18 18 18 18 18 18 18 18 18 17 17 18 18 18 18 18 18 18 18 18 18 18 18 18 17 17
20 20 19 19 19 19 18 18 18 18 18 18 18 18 18 18 18 18 18 18 18 18 17 17 18 17 17 17 18 18 18 18 18 18 18 18 18 18 18 18 18 17 17
20 20 19 19 19 19 18 18 18 18 18 18 18 18 18 18 17 18 18 17 17 17 17 17 17 17 17 18 17 18 18 18 17 17 17 17 17 18 18 18 18 17 17
19 19 19 19 19 19 19 18 18 18 18 18 18 18 18 18 18 18 18 17 17 17 17 17 17 17 17 17 17 17 17 17 17 17 17 17 17 17 17 17 17 17 17
19 19 19 18 18 18 18 18 18 18 18 18 18 18 18 17 17 17 17 17 17 17 17 17 17 17 17 17 17 17 17 17 17 17 17 17 17 17 17 17 17 17 17
19 19 18 18 18 18 18 18 18 18 18 18 18 18 17 17 17 17 17 17 17 17 17 17 17 17 17 17 17 17 17 17 17 17 17 17 17 17 17 17 17 17 17
19 18 18 18 18 18 18 18 18 18 17 17 17 17 17 17 17 17 17 17 17 16 16 16 16 16 16 17 17 17 17 17 17 17 17 17 17 17 17 17 17 17 17
18 18 18 18 18 18 18 18 17 17 17 17 17 17 17 17 17 17 17 17 16 16 16 16 16 16 16 16 16 17 17 17 17 17 17 17 17 17 17 16 16 16 16
18 18 18 18 18 18 18 17 17 17 17 17 17 17 17 17 17 16 16 16 16 16 16 16 16 16 16 16 16 17 17 17 17 17 17 17 17 16 16 16 16 16 16
18 18 18 18 18 18 18 18 17 17 17 17 17 17 17 16 16 16 16 16 16 16 16 15 16 16 16 16 16 16 17 17 17 17 17 17 16 16 16 16 16 16 16
18 17 18 17 17 17 17 17 17 17 17 17 17 17 16 16 16 16 16 16 16 15 15 15 15 15 15 16 16 16 16 16 17 17 17 17 16 16 16 16 16 16 16
18 17 17 17 17 17 17 17 17 17 17 17 17 17 16 16 16 16 16 16 16 15 15 15 15 15 15 15 15 16 16 16 16 16 16 16 16 16 16 16 15 15 15
18 18 17 17 18 17 17 17 18 18 17 17 17 17 16 16 16 16 15 15 15 15 15 15 15 15 15 15 15 15 15 16 16 16 16 16 16 16 15 15 15 15 15
18 18 17 18 18 17 17 17 17 17 17 17 17 17 16 16 16 16 15 15 15 15 15 15 15 14 14 15 15 15 15 15 15 15 15 16 16 16 15 15 15 15 15
Wind_Speed
19 20 21 20 18 18 17 16 16 15 15 15 15 15 15 15 14 14 14 14 14 14 14 14 13 13 13 13 13 14 14 14 15 16 17 17 15 14 13 14 16 17 17
23 22 22 20 19 18 17 16 16 15 15 15 15 14 14 14 14 13 13 14 14 14 14 14 14 13 13 13 12 12 12 12 13 15 16 16 15 14 13 13 16 15 16
23 22 22 20 19 18 17 17 16 16 15 15 14 14 14 14 13 13 13 13 13 14 14 14 14 14 13 12 11 10 9 9 10 12 13 14 14 15 16 17 17 16 15
23 21 21 21 19 18 17 17 16 16 15 14 14 14 13 13 13 13 13 13 13 13 13 13 13 13 13 11 10 8 7 6 6 6 8 13 14 14 15 16 16 15 15
21 21 22 22 20 19 18 17 17 16 15 14 14 13 13 13 13 12 12 12 13 13 13 13 13 12 11 10 8 6 4 3 1 4 13 16 15 14 14 15 15 14 14
21 22 22 22 20 19 18 17 17 16 15 14 14 13 13 12 12 12 12 12 12 12 12 12 12 11 10 8 6 4 3 4 4 6 15 16 14 13 13 14 13 13 13
21 21 22 22 20 19 18 17 16 16 15 14 13 13 13 12 12 12 11 11 11 12 11 11 11 10 9 7 5 4 5 6 1 8 16 16 15 14 13 13 12 12 12
20 21 21 21 20 19 18 17 16 15 15 14 13 13 13 12 12 11 11 10 10 11 10 10 9 8 7 5 4 4 6 8 4 10 16 16 16 14 12 12 11 11 11
21 20 18 19 18 18 17 16 16 15 15 14 13 12 12 12 11 11 11 10 10 10 9 8 7 6 5 3 2 4 7 9 6 9 15 15 15 13 12 11 11 10 10
18 19 17 18 17 17 16 16 16 15 14 13 13 12 12 11 11 11 11 10 9 8 7 6 6 4 3 1 2 5 7 10 3 10 14 15 16 13 12 11 10 10 10
16 16 17 16 16 16 16 16 15 14 13 13 12 11 10 10 11 10 11 11 9 8 7 6 4 3 3 4 5 6 8 8 2 9 13 17 15 13 11 10 10 9 9
16 15 14 15 14 15 14 15 13 12 12 11 11 11 8 7 8 10 13 11 9 7 6 5 4 4 6 5 7 7 7 6 3 9 14 18 15 13 11 10 10 9 9
12 14 13 13 9 10 10 11 9 10 10 9 10 10 7 7 8 9 9 9 7 6 4 5 4 3 1 2 2 3 3 5 4 10 14 16 14 12 11 10 10 10 9
10 12 12 12 9 7 9 8 8 8 8 7 9 9 8 5 5 5 5 5 4 4 3 1 1 2 3 3 4 5 5 4 5 9 12 14 13 12 11 10 10 10 10
10 10 11 10 9 8 6 5 6 6 7 8 8 7 9 5 4 5 4 4 4 3 3 1 2 2 2 2 4 4 4 5 3 4 10 12 13 12 11 10 10 10 11
12 11 12 11 10 8 6 4 4 6 7 7 8 7 7 8 5 5 4 3 4 4 4 1 1 0 0 1 2 2 3 4 4 3 6 9 11 12 11 11 11 11 11
12 12 12 11 10 9 7 6 5 6 7 6 7 8 7 8 7 5 4 3 3 4 4 2 1 1 1 1 2 2 2 2 2 2 0 4 8 11 12 11 11 12 12
11 12 12 12 12 9 7 4 3 5 6 7 8 8 7 7 7 5 3 3 4 4 3 2 1 0 0 1 1 2 1 2 2 3 3 3 4 5 11 12 12 12 13
11 13 11 11 12 10 8 4 4 4 5 7 8 8 7 6 7 5 3 4 4 3 2 1 3 2 2 2 3 3 2 2 2 3 2 3 3 3 6 11 13 12 13
11 12 11 11 11 10 7 5 4 5 5 6 7 8 8 6 6 6 5 3 2 2 2 3 2 0 2 2 4 2 3 2 1 1 2 3 4 4 4 7 9 10 12
11 11 10 11 10 8 7 6 6 6 5 5 5 8 7 6 6 4 4 2 1 3 3 2 1 1 2 0 2 3 3 4 4 2 1 1 0 0 1 4 4 3 7
11 11 10 10 10 8 7 5 5 6 5 5 5 6 8 7 6 5 4 3 2 3 3 2 2 2 2 1 2 3 1 1 1 3 3 3 2 2 1 2 3 3 2
12 12 11 10 10 9 9 6 6 5 5 5 6 5 5 6 5 4 4 3 2 2 3 1 0 1 2 2 1 2 3 3 1 1 1 3 3 1 1 1 2 3 3
12 12 11 11 10 9 9 8 9 7 6 7 6 5 5 5 5 5 5 4 1 1 3 1 3 2 1 2 0 1 1 2 2 1 1 2 2 2 1 1 1 1 1
14 13 12 11 10 9 8 8 7 6 6 7 7 8 6 5 5 5 5 4 2 1 3 3 3 2 2 2 2 1 1 1 3 2 1 1 2 1 2 1 0 1 0
13 13 13 12 10 9 7 7 6 5 7 8 8 7 6 5 4 5 6 4 2 2 4 3 1 1 2 3 3 3 2 2 2 2 2 2 2 1 1 1 1 2 2
Wind_Direction
128 131 133 132 132 131 129 127 124 120 116 111 106 103 100 98 95 92 90 89 88 86 86 85 84 82 80 79 80 82 84 88 92 94 95 95 93 92 96 104 101 96 99
128 131 133 133 134 133 132 130 127 124 120 115 110 107 104 102 99 96 93 91 89 89 88 87 85 84 83 84 84 86 90 96 102 106 105 97 90 88 88 91 97 102 102
126 131 134 133 134 134 132 131 129 126 123 119 116 112 109 105 102 99 96 94 92 91 91 90 88 86 85 85 87 89 93 102 112 120 121 106 95 91 94 98 101 105 105
128 135 135 134 133 134 132 131 131 129 126 123 119 116 112 108 103 100 98 96 94 92 92 92 90 87 86 86 86 86 90 104 120 133 129 110 103 98 101 103 105 105 106
131 132 133 136 134 134 133 132 131 129 128 126 123 120 116 111 106 103 101 99 97 95 95 93 91 88 86 85 84 79 68 54 79 132 104 100 101 106 105 107 107 107 106
133 132 136 137 136 135 135 134 132 131 131 129 127 123 118 115 111 107 104 102 100 99 97 96 93 90 87 83 76 58 25 356 336 110 113 109 110 112 110 111 110 109 109
134 132 138 137 136 137 137 136 135 135 133 131 128 126 122 118 114 111 109 107 105 103 100 98 95 91 86 79 62 28 352 336 304 111 111 111 116 117 114 113 113 112 112
134 134 138 139 139 139 139 139 138 137 135 133 129 127 126 122 118 115 114 111 108 105 102 101 98 94 87 74 43 360 343 329 26 111 112 116 124 123 120 118 119 117 116
134 135 141 142 142 142 142 142 141 140 137 136 134 132 132 129 127 123 119 116 114 112 110 108 106 104 97 79 15 333 327 327 335 112 117 123 129 129 128 126 126 126 124
134 140 146 146 146 147 146 145 144 143 141 141 141 141 140 141 140 138 132 126 123 122 120 118 120 126 129 147 279 298 311 311 313 109 115 129 135 136 137 136 135 134 134
140 144 148 147 152 153 151 148 148 147 147 148 151 154 157 162 157 157 137 136 134 134 134 137 148 167 194 219 245 268 286 278 123 109 118 135 140 142 145 148 149 147 145
145 148 150 150 158 159 152 147 156 157 157 165 163 166 177 162 145 138 141 145 147 149 153 164 182 216 229 225 232 242 265 282 136 117 130 141 145 147 153 158 161 161 161
148 147 146 148 151 146 136 151 157 152 158 175 164 169 163 131 123 127 144 148 159 166 171 171 196 238 295 348 314 262 314 354 49 109 137 146 149 154 161 168 172 176 176
155 152 150 143 135 130 140 149 151 152 161 164 162 169 139 122 117 114 120 130 140 131 118 128 139 51 19 8 341 336 351 22 50 105 143 152 158 163 169 177 184 186 187
154 150 138 138 137 131 128 151 155 150 155 152 155 159 140 132 129 120 111 116 125 140 131 134 72 42 17 360 329 344 354 8 12 89 142 165 170 175 181 188 194 195 195
161 152 141 144 139 136 136 143 134 139 137 143 146 145 137 131 128 126 131 130 122 117 112 133 124 115 330 308 309 321 324 330 354 43 138 168 180 184 189 196 200 203 203
160 151 145 147 145 145 150 158 144 141 144 138 134 135 131 132 137 143 137 135 126 133 144 141 175 203 219 235 257 286 272 274 314 343 174 181 191 197 197 201 207 209 209
154 148 153 157 149 145 146 151 137 143 136 134 135 132 128 135 146 150 132 133 140 154 160 158 186 227 339 301 279 279 274 209 211 233 239 212 203 198 199 207 214 216 216
151 149 147 143 146 144 145 147 132 132 137 138 139 138 146 154 157 141 127 126 163 161 154 134 86 23 346 337 284 241 251 217 200 226 209 219 205 205 193 199 213 216 216
144 144 141 140 143 146 148 147 146 148 143 132 127 132 145 152 141 133 129 138 158 115 95 79 88 244 271 278 294 297 258 225 208 202 244 215 193 209 196 186 200 215 218
139 139 140 143 148 150 152 159 160 155 147 136 135 139 147 142 131 127 114 139 118 101 99 100 61 281 257 298 307 288 239 201 170 164 195 345 95 84 142 158 170 195 213
145 145 149 152 155 157 158 159 157 151 148 137 125 138 148 143 152 151 134 145 110 114 118 89 58 327 324 33 332 315 291 137 264 168 161 176 95 34 6 139 158 193 222
156 160 160 161 159 162 161 157 148 141 138 129 133 148 145 144 143 115 126 123 130 157 137 144 156 17 350 333 25 7 348 25 343 122 132 100 99 54 329 343 187 192 204
165 162 157 157 155 161 169 163 159 160 160 153 153 146 146 145 144 139 131 124 120 107 122 155 97 357 323 317 29 106 87 59 339 351 301 115 173 193 210 304 344 283 194
165 159 155 152 154 163 175 162 168 165 157 147 139 141 150 148 155 147 133 126 137 114 104 79 76 12 353 359 351 353 68 190 229 251 310 327 268 198 172 176 229 283 320
162 157 155 154 155 163 171 163 181 168 144 139 142 151 165 156 168 154 142 134 140 117 118 114 118 110 58 29 355 345 350 336 331 336 324 312 306 286 165 153 197 226 236
Height
1511 1514 1518 1521 1524 1527 1530 1532 1534 1536 1538 1540 1541 1543 1544 1545 1546 1547 1548 1549 1550 1551 1552 1553 1553 1554 1555 1556 1556 1557 1558 1559 1560 1561 1562 1563 1564 1565 1566 1567 1568 1569 1570
1510 1514 1518 1522 1525 1528 1531 1534 1536 1538 1540 1542 1543 1545 1546 1547 1548 1549 1550 1551 1552 1553 1554 1554 1555 1556 1557 1557 1558 1559 1560 1561 1562 1563 1565 1566 1567 1567 1568 1570 1571 1572 1573
1510 1514 1519 1522 1526 1529 1533 1535 1537 1540 1542 1543 1545 1546 1548 1549 1550 1551 1552 1553 1554 1555 1556 1556 1557 1558 1559 1559 1560 1561 1562 1563 1565 1565 1567 1568 1569 1570 1571 1572 1573 1574 1575
1511 1515 1519 1523 1527 1530 1534 1536 1539 1541 1543 1545 1546 1548 1549 1551 1552 1553 1554 1555 1556 1557 1557 1558 1559 1560 1561 1562 1563 1564 1565 1566 1567 1568 1569 1570 1571 1572 1573 1574 1575 1576 1577
1512 1516 1520 1524 1528 1531 1534 1537 1540 1542 1544 1546 1548 1549 1551 1552 1554 1555 1556 1557 1558 1559 1559 1560 1561 1562 1563 1564 1565 1566 1567 1568 1569 1570 1571 1572 1573 1574 1575 1576 1577 1578 1579
1514 1517 1521 1525 1528 1532 1535 1538 1541 1543 1545 1547 1549 1551 1552 1554 1555 1556 1557 1559 1559 1560 1561 1562 1563 1564 1565 1566 1567 1568 1569 1570 1571 1572 1573 1574 1575 1576 1577 1577 1578 1580 1581
1515 1518 1522 1526 1530 1533 1536 1539 1542 1544 1546 1548 1550 1552 1554 1555 1557 1558 1559 1560 1561 1562 1563 1564 1565 1566 1567 1568 1569 1570 1571 1572 1573 1574 1575 1575 1576 1577 1578 1579 1580 1581 1582
1515 1519 1522 1526 1530 1534 1537 1540 1542 1545 1547 1549 1551 1553 1555 1556 1558 1559 1560 1561 1562 1563 1564 1566 1567 1568 1569 1570 1571 1572 1572 1573 1575 1576 1576 1576 1577 1578 1579 1580 1581 1583 1584
1516 1519 1523 1527 1531 1534 1538 1540 1543 1546 1548 1550 1552 1554 1556 1557 1559 1560 1562 1563 1564 1565 1566 1567 1568 1569 1570 1571 1572 1573 1574 1574 1575 1576 1576 1578 1578 1579 1580 1581 1582 1584 1585
1516 1520 1524 1527 1531 1534 1538 1541 1544 1546 1548 1551 1553 1555 1557 1558 1560 1561 1563 1564 1565 1566 1567 1568 1569 1571 1572 1572 1573 1574 1575 1575 1576 1577 1577 1578 1579 1580 1581 1582 1583 1585 1586
1516 1520 1524 1527 1531 1535 1538 1541 1544 1547 1549 1551 1554 1556 1558 1559 1561 1562 1563 1565 1566 1567 1568 1569 1570 1571 1572 1573 1574 1575 1575 1575 1576 1577 1577 1579 1580 1581 1582 1583 1584 1585 1587
1515 1520 1524 1527 1531 1535 1539 1541 1544 1547 1549 1552 1554 1556 1558 1560 1562 1563 1564 1566 1567 1568 1568 1569 1571 1572 1573 1574 1575 1575 1575 1576 1577 1576 1577 1579 1580 1582 1582 1583 1584 1586 1587
1515 1519 1524 1527 1532 1535 1538 1541 1544 1548 1549 1552 1554 1557 1559 1561 1563 1564 1565 1566 1567 1568 1569 1570 1571 1572 1573 1574 1575 1575 1576 1576 1577 1576 1578 1579 1581 1582 1582 1583 1584 1586 1587
1515 1520 1524 1526 1531 1535 1538 1541 1545 1547 1549 1552 1554 1557 1559 1561 1562 1563 1564 1565 1567 1568 1569 1569 1570 1571 1572 1573 1574 1575 1576 1576 1576 1577 1578 1579 1580 1581 1582 1583 1584 1585 1586
1514 1519 1522 1526 1531 1534 1537 1540 1544 1547 1549 1552 1554 1556 1558 1560 1562 1563 1564 1565 1566 1567 1568 1569 1570 1570 1571 1572 1573 1574 1575 1575 1576 1577 1577 1578 1579 1580 1581 1582 1583 1584 1585
1512 1517 1521 1526 1530 1533 1536 1539 1543 1546 1549 1551 1553 1555 1558 1559 1561 1562 1563 1565 1566 1567 1567 1568 1569 1569 1570 1571 1571 1572 1573 1574 1575 1576 1576 1577 1578 1579 1579 1581 1582 1583 1584
1510 1515 1520 1525 1528 1532 1535 1539 1542 1545 1548 1550 1552 1554 1557 1558 1560 1561 1563 1564 1565 1566 1567 1567 1568 1569 1569 1570 1571 1571 1572 1572 1573 1574 1575 1576 1576 1577 1578 1579 1580 1581 1582
1508 1513 1519 1524 1527 1531 1535 1539 1542 1545 1548 1550 1551 1553 1556 1557 1559 1560 1562 1563 1564 1565 1566 1567 1567 1568 1569 1569 1570 1570 1571 1571 1572 1572 1573 1574 1575 1576 1576 1577 1578 1579 1580
1506 1511 1517 1522 1526 1530 1534 1538 1541 1544 1547 1549 1551 1553 1554 1556 1558 1560 1561 1562 1564 1565 1566 1567 1566 1567 1568 1568 1568 1569 1570 1570 1571 1572 1572 1573 1574 1574 1575 1575 1576 1577 1578
1506 1511 1515 1520 1525 1530 1534 1538 1541 1544 1546 1549 1550 1552 1554 1556 1557 1559 1560 1562 1563 1564 1565 1565 1566 1566 1567 1567 1568 1568 1568 1569 1570 1570 1571 1572 1572 1573 1573 1574 1574 1574 1575
1507 1511 1515 1520 1525 1529 1533 1537 1540 1543 1546 1548 1550 1551 1553 1555 1556 1558 1560 1561 1562 1563 1564 1564 1565 1566 1567 1567 1567 1567 1567 1568 1568 1569 1570 1571 1571 1572 1572 1572 1572 1573 1573
1507 1510 1515 1520 1524 1529 1533 1537 1540 1543 1545 1547 1549 1551 1553 1554 1556 1558 1559 1560 1561 1562 1562 1563 1564 1564 1566 1566 1566 1566 1567 1568 1568 1569 1569 1570 1570 1570 1571 1571 1571 1571 1571
1507 1510 1515 1519 1524 1528 1532 1536 1539 1542 1545 1547 1548 1550 1552 1553 1555 1557 1558 1559 1560 1561 1561 1562 1562 1563 1564 1565 1566 1567 1567 1567 1567 1569 1569 1569 1569 1569 1570 1570 1570 1570 1570
1506 1510 1514 1518 1523 1528 1532 1535 1538 1541 1544 1546 1547 1549 1551 1552 1554 1555 1556 1557 1558 1559 1560 1561 1561 1562 1563 1564 1565 1566 1566 1567 1567 1568 1568 1568 1568 1568 1568 1568 1568 1568 1568
1506 1510 1514 1518 1522 1527 1531 1535 1538 1540 1543 1545 1547 1548 1550 1551 1553 1554 1555 1556 1557 1558 1558 1559 1560 1561 1562 1563 1564 1565 1565 1566 1566 1567 1567 1567 1567 1567 1567 1567 1567 1566 1566
1506 1510 1513 1517 1521 1526 1530 1533 1537 1539 1542 1543 1545 1547 1549 1550 1552 1553 1554 1554 1555 1556 1557 1557 1558 1560 1560 1561 1562 1563 1564 1565 1565 1566 1566 1566 1566 1566 1565 1565 1565 1565 1565